Hourly Data Report for May 20, 2012

All times are specified in Local Standard Time (LST). Add 1 hour to adjust for Daylight Saving Time where and when it is observed.

HAMILTON A
ONTARIO

43°10'25.000" N
79°56'06.000" W
237.70 m
6153193
71263
YHM

Download Data

Hourly Data (May 2012)
Hourly Data Report for May 20, 2012
Temp Definition
°C
Dew Point Temp Definition
°C
Rel Hum Definition
%
Wind Dir Definition
10's deg

Wind Spd Definition
km/h
Visibility Definition
km
Stn Press Definition
kPa
Hmdx Definition


Wind Chill Definition


Weather Definition


TIME
00:00 16.4 7.9 57   0 10.0 99.30     LegendNANA
01:00 16.1 9.1 63   0 10.0 99.28     Mainly Clear
02:00 15.0 9.0 67   0 10.0 99.29     LegendNANA
03:00 13.3 9.0 75   0 10.0 99.30     LegendNANA
04:00 13.8 8.7 71   0 10.0 99.31     Mainly Clear
05:00 13.8 8.1 68 26 7 10.0 99.36     LegendNANA
06:00 14.1 10.9 81 28 7 10.0 99.44     LegendNANA
07:00 19.5 10.9 57 34 4 10.0 99.44     Mainly Clear
08:00 22.9 9.8 43   0 10.0 99.48     LegendNANA
09:00 25.1 11.1 41   0 10.0 99.48 27   LegendNANA
10:00 27.0 10.1 34 11 7 10.0 99.47 28   Mainly Clear
11:00 27.9 9.5 31 11 13 10.0 99.44 29   LegendNANA
12:00 28.6 11.0 33 14 15 10.0 99.40 30   LegendNANA
13:00 28.2 12.8 38 6 12 10.0 99.35 31   Mostly Cloudy
14:00 27.7 12.7 39 5 16 10.0 99.27 30   LegendNANA
15:00 26.3 12.6 42 5 19 10.0 99.22 29   LegendNANA
16:00 25.6 13.0 45 4 15 10.0 99.17 28   Mostly Cloudy
17:00 24.5 12.3 46 5 17 10.0 99.16 27   LegendNANA
18:00 22.6 10.2 45 4 15 10.0 99.15     LegendNANA
19:00 19.3 9.0 51 4 13 10.0 99.10     Mainly Clear
20:00 16.9 7.9 55 4 15 10.0 99.08     LegendNANA
21:00 17.0 9.0 59 3 12 10.0 99.10     LegendNANA
22:00 16.5 7.8 56 2 13 10.0 99.07     Mainly Clear
23:00 15.6 8.4 62 3 12 10.0 99.00     LegendNANA

Notes on Data Quality.

Legend

  • E = Estimated
  • M = Missing
  • NA = Not Available
Date modified: